Wind_Speed
8 9 9 10 10 11 11 11 12 12 13 13 13 13 14 14 14 13 13 14 13 13 13 12 12 12 12 12 12 12 12 12 13 13 13 13 14 14 14 14 14 15 15
8 8 9 9 10 10 10 11 12 12 13 13 13 13 13 14 14 13 12 13 14 14 13 13 13 13 12 13 13 13 13 13 13 13 14 14 13 14 14 14 14 15 16
7 8 8 9 9 9 10 11 12 12 12 12 12 13 13 13 13 14 13 13 13 14 14 14 14 13 13 13 14 13 13 13 13 14 14 14 14 14 14 14 14 15 15
7 7 8 8 8 9 10 10 11 11 12 12 12 12 12 13 13 13 13 13 13 13 14 14 15 15 14 14 14 14 13 14 14 14 15 15 14 14 14 15 15 16 16
7 7 7 8 8 9 9 10 11 11 11 12 12 12 12 12 12 12 13 13 13 14 14 15 15 15 15 15 15 14 13 13 14 14 15 15 14 14 14 15 16 16 16
7 7 7 7 8 8 9 10 11 11 11 11 11 11 12 12 12 12 12 13 14 14 14 14 15 15 15 15 15 14 14 14 14 15 15 15 14 15 15 15 15 16 16
8 7 7 8 8 8 9 10 10 10 10 11 12 12 12 12 12 12 12 13 13 14 14 14 15 15 15 14 14 15 15 15 15 15 15 15 15 15 16 16 16 15 16
8 9 8 9 9 9 9 9 10 10 11 11 11 12 12 13 13 12 13 13 13 13 13 14 14 14 14 14 14 15 15 15 16 16 16 16 16 16 16 16 17 17 17
10 9 10 10 10 10 10 10 10 10 11 12 12 12 12 13 13 13 13 13 13 13 13 14 14 14 14 14 15 15 15 15 15 16 16 17 16 16 16 17 17 17 17
10 10 10 10 10 10 11 11 11 11 11 12 12 13 13 13 13 13 13 13 13 14 14 14 14 14 15 15 14 15 15 16 16 16 16 17 17 17 17 17 17 17 16
11 11 11 11 11 11 11 11 11 12 12 12 13 13 13 13 13 13 14 14 14 14 14 15 15 15 15 15 15 15 16 16 16 16 16 17 17 17 17 17 17 17 17
11 11 11 12 12 12 11 12 12 13 13 13 14 14 14 15 15 14 15 15 15 15 15 15 15 16 16 16 16 16 17 17 17 17 16 16 16 17 17 16 17 17 16
11 11 11 12 12 12 12 13 13 13 14 14 15 15 15 15 16 16 16 16 16 16 17 17 17 16 16 16 16 16 16 17 17 17 17 16 16 16 16 16 16 16 16
12 12 12 12 12 12 13 14 14 15 15 15 15 15 15 15 16 16 16 17 17 17 17 18 18 17 17 16 16 16 15 16 16 17 17 17 17 16 16 15 16 16 16
12 13 13 13 13 13 14 15 16 16 16 16 16 16 16 16 16 16 16 17 17 17 17 18 18 18 17 17 17 16 16 16 16 16 16 17 17 17 16 16 16 16 16
14 14 14 14 14 15 15 16 16 16 17 17 17 17 17 17 18 18 18 17 17 18 18 17 18 18 18 18 18 17 17 17 17 17 17 17 17 17 17 17 17 17 17
15 15 15 15 16 16 17 17 17 17 18 18 18 18 19 19 19 19 19 19 19 19 18 18 19 19 19 19 18 18 18 18 18 18 18 18 18 17 17 17 18 18 18
17 17 16 16 17 17 17 17 18 18 19 19 19 19 20 20 20 19 20 20 20 19 19 19 19 19 19 19 20 19 19 19 19 19 19 19 19 18 18 18 18 18 18
18 18 18 18 18 18 18 18 19 19 20 20 20 20 20 20 20 20 20 21 21 20 20 20 20 20 20 20 20 20 20 20 19 19 20 19 20 19 19 19 19 19 19
19 19 18 19 19 19 19 19 20 20 20 21 21 21 21 21 21 21 21 21 22 22 22 21 21 21 21 21 21 21 21 21 20 20 20 20 20 20 21 21 20 20 20
20 20 20 20 20 20 20 20 20 20 21 21 21 22 22 22 22 22 22 22 23 23 23 23 23 22 22 22 22 22 22 22 22 22 22 21 21 21 21 21 21 22 22
21 21 21 21 21 21 21 21 22 22 22 22 22 22 23 23 23 23 23 23 23 23 24 23 23 23 22 22 22 23 23 22 22 23 23 23 22 23 23 23 23 23 23
22 22 22 22 23 22 22 22 22 22 23 23 23 23 23 24 24 24 24 24 24 24 24 24 23 23 24 23 23 23 24 24 24 24 24 24 24 24 24 25 25 25 24
24 24 24 24 24 23 23 23 23 23 23 23 24 24 24 24 24 24 24 24 25 24 24 25 24 24 24 24 24 24 24 25 25 24 25 25 25 26 26 26 26 26 27
25 25 25 25 24 24 24 24 24 24 24 24 24 25 25 24 24 24 24 24 25 25 25 25 25 25 25 25 25 26 26 26 25 25 26 26 26 26 27 27 28 28 28
26 26 26 26 26 26 25 25 25 25 25 25 25 26 26 26 26 25 25 25 26 27 27 26 26 26 26 26 26 26 26 26 26 26 27 27 27 27 27 28 28 29 29
Wind_Direction
243 246 245 247 247 249 251 251 253 253 254 256 256 256 256 257 259 260 257 255 255 256 256 257 259 261 261 260 262 263 266 269 270 270 272 273 272 273 273 271 271 272 272
246 247 245 245 245 248 251 255 256 254 255 257 257 256 257 256 258 257 259 258 255 255 255 256 256 260 260 261 264 265 267 270 271 271 273 273 274 275 273 272 273 272 271
250 249 249 251 251 251 253 257 257 257 257 258 258 257 256 256 256 257 258 260 258 257 256 256 259 262 264 266 266 266 269 270 271 272 273 275 275 274 273 274 273 273 272
252 250 253 256 257 256 257 260 258 259 259 259 258 258 257 258 260 261 260 261 261 260 258 257 259 262 263 266 268 269 270 270 270 273 274 275 274 274 275 273 273 274 274
256 254 256 258 260 260 259 260 257 260 258 259 259 259 259 261 262 261 260 261 261 260 260 258 258 261 264 266 268 270 272 272 271 273 275 274 272 273 274 273 274 275 274
257 259 259 263 266 263 261 261 261 262 258 259 261 261 262 264 264 260 259 261 262 261 261 261 261 262 265 266 268 269 271 272 273 274 274 273 272 272 273 274 276 275 274
259 259 262 267 269 268 266 264 264 265 263 260 261 262 266 266 264 263 261 263 263 262 262 261 261 263 267 268 268 268 269 271 272 273 275 274 274 274 273 274 276 276 275
259 260 264 269 272 271 268 267 268 266 265 265 265 265 266 264 264 265 265 263 262 262 262 261 261 263 266 269 270 270 268 270 271 272 273 274 275 274 273 274 274 274 274
263 263 265 270 273 272 270 268 269 268 267 268 268 268 267 265 264 264 266 264 262 262 262 262 263 265 268 270 270 270 269 270 270 271 273 272 274 273 273 273 274 274 275
265 265 269 272 272 271 270 268 267 266 269 270 268 269 268 267 266 266 266 265 264 264 264 265 265 267 268 271 271 268 269 271 270 270 271 272 273 272 272 272 273 273 275
267 268 271 271 271 271 269 267 267 268 270 272 271 270 271 270 269 269 267 266 267 266 265 267 267 267 268 271 272 271 270 271 273 272 271 272 273 273 273 272 271 270 271
266 269 270 270 269 269 269 270 269 271 273 273 272 271 271 271 269 269 269 268 268 268 268 270 270 269 269 273 274 273 273 272 272 271 270 269 271 272 271 270 267 267 268
265 267 269 269 269 269 269 271 272 273 274 273 273 273 273 273 270 269 269 268 267 268 269 270 270 271 272 274 275 276 275 273 272 270 269 269 270 270 269 269 269 270 271
264 265 267 270 272 270 271 271 271 272 273 272 272 273 273 273 271 271 270 267 266 268 269 270 271 273 274 274 274 275 275 273 271 269 268 269 269 266 266 268 269 271 273
266 269 270 271 272 272 273 272 272 273 271 271 272 272 272 272 270 271 270 268 267 268 270 271 271 272 272 272 273 273 271 270 271 269 268 269 269 266 265 266 268 271 272
267 270 272 272 273 273 273 274 274 273 272 272 271 271 271 271 271 271 270 269 269 270 270 270 270 270 271 272 272 271 271 272 272 271 270 269 271 270 267 266 267 270 272
268 270 273 273 273 274 274 274 274 273 273 272 271 271 271 271 270 271 270 269 270 270 271 272 271 270 269 270 269 269 270 271 271 271 269 268 269 269 268 267 267 268 270
268 270 273 275 276 275 273 274 275 274 273 272 272 273 272 271 270 270 270 269 269 271 272 273 273 272 271 269 267 267 268 270 271 270 270 269 267 267 268 267 266 267 268
268 270 274 276 277 276 275 275 275 274 273 273 274 274 273 272 270 271 271 270 269 269 272 273 274 273 271 268 267 267 268 269 269 270 270 269 268 267 266 267 268 268 269
269 270 272 275 276 277 277 277 277 277 274 273 272 272 273 272 272 272 271 271 270 268 270 272 272 272 272 269 267 267 267 268 267 269 269 269 268 267 266 267 268 268 269
270 270 271 273 275 277 277 277 279 278 277 274 273 272 272 272 272 271 270 270 270 270 270 270 271 271 269 267 266 267 267 267 267 269 269 269 269 268 267 268 270 270 270
269 270 273 272 273 275 275 276 278 278 277 276 275 274 272 274 272 270 271 271 272 272 271 271 271 271 269 266 265 266 267 267 268 269 268 268 269 269 267 268 270 271 272
269 271 271 272 273 274 275 276 278 278 277 276 275 276 274 274 274 271 271 272 273 273 272 271 270 272 270 268 266 266 267 268 268 268 268 268 269 269 269 269 269 270 271
271 271 272 272 273 273 274 277 277 278 276 275 276 276 275 273 273 271 270 270 272 272 271 271 271 270 269 268 268 267 266 267 268 268 269 269 269 270 270 269 269 269 270
272 271 271 271 272 273 274 275 276 276 274 273 274 274 274 272 271 271 270 270 271 271 272 272 271 269 267 268 269 268 268 267 267 268 268 269 269 269 270 270 269 269 269
272 271 270 271 271 272 272 273 273 274 273 273 273 272 272 271 270 270 271 271 271 271 272 271 270 269 269 269 270 269 269 269 268 267 267 268 269 270 271 271 270 270 270
Height
5852 5852 5852 5853 5853 5854 5855 5855 5856 5856 5857 5857 5857 5858 5858 5858 5859 5859 5859 5860 5860 5860 5861 5861 5861 5861 5861 5861 5861 5861 5861 5861 5861 5861 5860 5860 5860 5859 5859 5858 5858 5858 5858
5850 5850 5850 5851 5851 5852 5852 5853 5853 5854 5854 5854 5854 5855 5855 5855 5856 5856 5856 5857 5857 5857 5858 5858 5858 5858 5858 5858 5858 5858 5858 5858 5858 5857 5857 5857 5856 5856 5856 5855 5855 5855 5854
5848 5848 5848 5848 5849 5849 5850 5850 5850 5851 5851 5851 5852 5852 5852 5852 5853 5853 5853 5854 5854 5854 5855 5855 5855 5855 5855 5855 5855 5855 5855 5854 5854 5854 5854 5853 5853 5853 5852 5852 5852 5851 5851
5846 5846 5846 5846 5847 5847 5847 5847 5847 5848 5848 5848 5849 5849 5849 5849 5850 5850 5850 5850 5851 5851 5851 5852 5852 5852 5852 5852 5851 5851 5851 5851 5851 5850 5850 5850 5850 5849 5849 5849 5848 5848 5847
5844 5844 5844 5844 5844 5844 5845 5845 5845 5845 5845 5846 5846 5846 5846 5847 5847 5846 5846 5847 5847 5848 5848 5848 5848 5848 5848 5848 5848 5848 5847 5847 5847 5847 5846 5846 5846 5846 5845 5845 5845 5844 5843
5842 5842 5842 5842 5842 5842 5842 5842 5843 5843 5843 5843 5843 5843 5843 5843 5843 5843 5843 5843 5844 5844 5844 5844 5844 5845 5844 5844 5844 5844 5844 5844 5843 5843 5843 5842 5842 5842 5841 5841 5841 5840 5839
5839 5840 5840 5840 5840 5840 5840 5840 5840 5840 5840 5840 5840 5840 5840 5840 5840 5840 5840 5840 5840 5840 5840 5840 5841 5841 5841 5840 5840 5840 5840 5840 5840 5839 5839 5839 5838 5838 5837 5837 5837 5836 5835
5837 5837 5837 5837 5837 5837 5837 5837 5837 5837 5837 5837 5837 5837 5837 5838 5837 5837 5837 5837 5837 5837 5837 5837 5837 5837 5837 5837 5837 5836 5836 5836 5835 5835 5835 5835 5834 5834 5833 5833 5832 5832 5831
5834 5834 5834 5834 5834 5834 5834 5834 5834 5834 5834 5834 5834 5834 5834 5834 5834 5834 5833 5833 5833 5833 5833 5833 5833 5833 5833 5833 5833 5832 5832 5832 5831 5831 5831 5830 5830 5830 5829 5829 5828 5827 5827
5831 5831 5831 5831 5831 5831 5831 5831 5831 5831 5831 5830 5830 5830 5831 5830 5830 5830 5830 5830 5829 5829 5829 5829 5829 5829 5829 5828 5828 5828 5828 5827 5827 5827 5826 5826 5826 5825 5825 5824 5824 5823 5823
5829 5828 5828 5828 5828 5828 5828 5828 5827 5827 5827 5827 5827 5826 5826 5826 5826 5826 5826 5826 5826 5825 5825 5825 5825 5825 5824 5824 5824 5824 5823 5823 5823 5822 5822 5822 5821 5821 5820 5820 5819 5819 5819
5826 5825 5825 5825 5824 5824 5824 5824 5824 5824 5823 5823 5823 5823 5822 5822 5822 5822 5822 5822 5822 5821 5821 5821 5820 5820 5820 5820 5819 5819 5819 5818 5818 5818 5818 5817 5817 5816 5816 5815 5815 5815 5815
5822 5822 5822 5822 5821 5821 5820 5820 5820 5819 5819 5819 5819 5818 5818 5818 5818 5818 5817 5817 5817 5817 5817 5816 5816 5816 5815 5815 5814 5814 5814 5813 5813 5813 5813 5813 5812 5812 5811 5811 5811 5811 5810
5819 5819 5818 5818 5817 5817 5816 5816 5816 5815 5815 5814 5814 5814 5814 5813 5813 5813 5813 5813 5813 5813 5812 5812 5811 5811 5810 5810 5810 5809 5809 5808 5808 5808 5808 5808 5808 5807 5807 5807 5807 5807 5806
5815 5815 5814 5814 5813 5813 5812 5812 5811 5811 5810 5810 5809 5809 5809 5808 5808 5808 5808 5808 5808 5808 5807 5806 5806 5805 5805 5805 5805 5804 5804 5804 5803 5803 5803 5803 5803 5803 5803 5803 5803 5802 5802
5811 5811 5810 5810 5809 5808 5808 5807 5806 5806 5805 5805 5804 5804 5804 5803 5803 5803 5802 5802 5802 5802 5802 5802 5801 5800 5800 5800 5800 5799 5799 5799 5798 5798 5798 5798 5798 5798 5798 5798 5798 5798 5798
5806 5806 5806 5805 5804 5804 5803 5802 5801 5801 5800 5799 5799 5799 5798 5798 5797 5797 5797 5797 5796 5797 5796 5796 5795 5795 5795 5795 5794 5794 5794 5793 5793 5793 5793 5793 5793 5793 5793 5793 5793 5793 5793
5801 5801 5800 5800 5799 5798 5797 5797 5796 5795 5794 5794 5793 5793 5792 5792 5791 5791 5791 5791 5791 5791 5791 5790 5790 5789 5789 5789 5789 5789 5788 5788 5788 5788 5787 5788 5788 5788 5788 5788 5788 5788 5788
5796 5796 5795 5794 5793 5792 5792 5791 5790 5789 5788 5788 5787 5787 5786 5786 5786 5785 5785 5785 5785 5785 5784 5784 5784 5783 5783 5783 5783 5783 5783 5782 5782 5782 5782 5782 5782 5782 5783 5783 5783 5783 5783
5790 5790 5789 5788 5788 5787 5786 5785 5784 5783 5782 5781 5781 5780 5780 5780 5779 5779 5779 5778 5778 5778 5778 5778 5777 5777 5777 5777 5777 5777 5777 5777 5777 5776 5776 5776 5777 5777 5777 5777 5777 5777 5777
5784 5784 5783 5782 5781 5781 5779 5778 5777 5776 5775 5775 5774 5774 5773 5773 5772 5772 5772 5772 5771 5771 5771 5771 5771 5770 5770 5770 5770 5770 5770 5770 5771 5771 5770 5771 5771 5771 5771 5771 5771 5771 5771
5777 5777 5777 5776 5775 5774 5773 5772 5771 5770 5769 5768 5767 5767 5766 5766 5765 5765 5765 5765 5765 5764 5764 5764 5764 5763 5763 5763 5763 5764 5764 5764 5765 5765 5764 5764 5764 5764 5765 5765 5765 5765 5765
5771 5770 5770 5769 5768 5767 5766 5765 5764 5763 5762 5761 5760 5760 5759 5759 5758 5758 5758 5757 5757 5757 5757 5757 5757 5756 5756 5756 5756 5756 5757 5757 5757 5757 5757 5758 5758 5758 5758 5758 5758 5758 5758
5763 5763 5762 5762 5761 5760 5759 5758 5757 5756 5755 5754 5753 5753 5752 5751 5751 5751 5750 5750 5750 5750 5749 5749 5749 5749 5749 5749 5749 5749 5749 5749 5750 5750 5750 5751 5750 5750 5750 5750 5750 5750 5750
5756 5755 5755 5754 5753 5752 5751 5751 5750 5749 5748 5747 5746 5745 5745 5744 5744 5743 5743 5743 5743 5742 5742 5741 5741 5741 5741 5741 5741 5741 5741 5741 5742 5742 5742 5743 5743 5742 5742 5742 5742 5742 5742
5748 5747 5747 5746 5745 5745 5744 5743 5742 5741 5741 5740 5739 5738 5737 5737 5736 5736 5736 5735 5735 5734 5734 5734 5734 5733 5733 5733 5733 5733 5733 5734 5734 5734 5734 5734 5734 5734 5734 5734 5734 5734 5733